CZ-6A DEB, 61402

Orbit data source: Space-Track

CZ-6A DEB, 61402 is space debris in LEO originally from a launch on Tue, 06 Aug 2024 UTC launched from the Taiyaun Space Center, China (TSC). Debris objects in space refer to the collection of defunct objects orbiting the Earth. Examples of debris include non-operational satellites, rocket bodies, and fragments generated from explosions, collisions, or faulty payload assembly.

Loading next visibility...
Identifier
61402, 2024-140XT
Orbit
LEO
Country
Flag of CNCN / PRC
Related business
Manufacturer
SAST
Mission
Spacecraft
Bus & Motor
Unknown
Mass
Unknown
Launch date (UTC)
2024-08-06 (1 year ago)
Launch vehicle
Unknown
Launch site
Taiyaun Space Center, China (TSC)
Object type
Payload
Rocket body
Debris
Shape & HBR
Unknown shape, 0.1 m
Radar Cross Section
Small (<0.1 m²)

Expand to show TLE details & history
Last TLE update: 1 day ago

TLE from 1 day ago
0 CZ-6A DEB
1 61402U 24140XT  25312.52244426  .00032536  00000-0  11838-2 0  9998
2 61402  89.7172 335.8586 0207369 131.8752 230.0392 15.10180467 63743
Epoch: 2025-11-08T12:32Z
TLE epoch observation values (Epoch: 2025-11-08T12:32:19.184Z)
Latitude
-0.00008°
Longitude
99.82782°
Altitude
632.651 km
Speed
7.491 km/s
True Right ascension
22h 23m 26s
True Declination
0° 00' 00"
Sunlit
Object was in daylight at epoch
Visualization orbit readout
Latitude
Unknown
Longitude
Unknown
Altitude
Unknown
Speed
Unknown
Apparent Right ascension
Unknown
Apparent Declination
Unknown
Sunlit
N/A
Visualization observer readout
Local Sidereal Time
19:53:46
Azimuth
Unknown
Elevation
Unknown
Doppler factor
Unknown
Orbital elements
Apogee altitude
675.772 km
Perigee altitude
389.163 km
Semi-major axis
6,910.605 km
Eccentricity
0.02074
Inclination
89.7172°
RAAN
335.8586°
Arg. of periapsis
131.8752°
True anomaly
228.24796°
Mean anomaly
230.0392°
Eccentric anomaly
229.14059°
Mean motion
3.77806 °/min
Orbital period
95.29 mins
BSTAR
0.0011838
Loading maneuver chart data...
Computing Atmospheric mass density...

Documentation

Showing up to 5 results
|